Back to catalog

STARLINK-31580

AliveCommunicationsVLEO
NORAD 59434·PAYLOAD·🇺🇸 United States

Launched Apr 7, 2024 from Vandenberg Space Force Base

Loading…

Next Passes (next 24 hours)

TLE

FreshSource: CelesTrak SupGP

Epoch: Sep 14, 2026, 14:21 UTC

1 59434C 24065P   26257.59840278  .00042700  00000+0  12613-2 0  2571
2 59434  53.1574 124.9619 0001397 104.0864 186.6868 15.34375026    17

Track STARLINK-31580 in real time with AllMySat

Download on the App Store